Location: Kawakawa
(35.3830°S, 174.0670°E)
Time: 01:47:09
(UTC+13:00)

Altair - Pass Details

Date: 08 December 2019
Orbit: 1502 x 1682 km, 47.2° (Epoch: 18 January)

Event Time Altitude Azimuth Distance (km) Brightness Sun altitude
Rises 14:10:09 0° 254° (WSW) 4,878 10.3 72.6°
Reaches altitude 10° 14:13:34 10° 247° (WSW) 3,913 9.9 72.0°
Maximum altitude 14:23:01 42° 177° (S) 2,254 8.9 70.5°
Drops below altitude 10° 14:32:35 10° 108° (ESE) 3,959 9.6 68.9°
Sets 14:36:03 0° 101° (E) 4,939 9.9 68.3°
